* Astronomy

Members Login
Post Info TOPIC: ZLAF9B2


L

Posts: 131433
Date:
Asteroid 2018 LA
Permalink  
 


Orbital elements:
2018 LA                                                  Earth MOID = 0.0000 AU
Epoch 2018 Mar. 23.0 TT = JDT 2458200.5                 MPC
M 282.84309              (2000.0)            P               Q
n   0.61405312     Peri.  256.08498     +0.84516929     +0.52977474
a   1.3708778      Node    71.88175     -0.45706629     +0.78511420
e   0.4289022      Incl.    4.27851     -0.27709072     +0.32083394
P   1.61           H   30.6           G   0.15           U   6

MPEC 2018 - L04



__________________


L

Posts: 131433
Date:
RE: ZLAF9B2
Permalink  
 




__________________


L

Posts: 131433
Date:
Permalink  
 



__________________


L

Posts: 131433
Date:
Permalink  
 

Orbital elements:  ZLAF9B2
   Perigee 2018 Jun 2.703332 +/- 0.000756 TT = 16:52:47 (JD 2458272.203332)
Epoch 2018 Jun  2.0 TT = JDT 2458271.5                        AutoNEOCP
q  5865.28111 +/- 57.8              (J2000 equator)
H   30.6  G 0.15                    Peri.  316.84410 +/- 0.09
                                    Node    91.28483 +/- 0.033
e   3.2335742 +/- 0.02              Incl.  158.22128 +/- 0.046
From 14 observations 2018 June 2 (3.8 hr); mean residual 0".43

IMPACT at 2 Jun 2018 16:48:49.69 lat -20.57413 lon E16.38807

Read more



__________________
Page 1 of 1  sorted by
 
Quick Reply

Please log in to post quick replies.



Create your own FREE Forum
Report Abuse
Powered by ActiveBoard